QPF
0.03 0.05 0.06 0.06 0.07 0.08 0.10 0.12 0.10 0.09 0.13 0.16 0.10 0.07 0.08 0.08 0.07 0.06 0.06 0.05 0.04 0.04 0.04 0.06 0.08 0.07 0.06 0.05 0.05 0.05 0.05 0.05 0.05 0.05 0.04 0.03 0.02 0.02 0.01 0.02 0.02 0.02 0.02
0.03 0.04 0.04 0.06 0.07 0.09 0.14 0.18 0.14 0.12 0.15 0.18 0.16 0.12 0.09 0.07 0.05 0.05 0.04 0.05 0.06 0.05 0.05 0.06 0.08 0.08 0.08 0.07 0.05 0.05 0.04 0.04 0.04 0.05 0.06 0.05 0.04 0.02 0.02 0.02 0.02 0.02 0.02
0.03 0.03 0.03 0.05 0.09 0.11 0.14 0.15 0.14 0.13 0.13 0.13 0.13 0.10 0.08 0.07 0.06 0.07 0.08 0.09 0.09 0.07 0.07 0.08 0.07 0.06 0.06 0.06 0.08 0.08 0.06 0.05 0.05 0.05 0.05 0.04 0.03 0.02 0.02 0.03 0.03 0.03 0.03
0.02 0.02 0.05 0.08 0.09 0.13 0.13 0.12 0.11 0.11 0.11 0.11 0.09 0.07 0.07 0.07 0.08 0.11 0.13 0.13 0.11 0.09 0.09 0.08 0.07 0.06 0.05 0.05 0.06 0.07 0.07 0.07 0.07 0.07 0.07 0.06 0.04 0.03 0.02 0.02 0.02 0.02 0.02
0.04 0.04 0.05 0.07 0.09 0.12 0.13 0.12 0.12 0.11 0.11 0.09 0.09 0.09 0.08 0.09 0.10 0.12 0.15 0.16 0.15 0.14 0.13 0.09 0.06 0.04 0.03 0.03 0.03 0.04 0.04 0.04 0.04 0.04 0.05 0.07 0.06 0.05 0.03 0.02 0.02 0.01 0.01
0.09 0.08 0.07 0.08 0.10 0.11 0.13 0.15 0.12 0.10 0.09 0.08 0.10 0.12 0.11 0.09 0.08 0.09 0.09 0.11 0.13 0.13 0.13 0.10 0.05 0.04 0.02 0.02 0.02 0.03 0.03 0.05 0.05 0.04 0.04 0.04 0.04 0.03 0.03 0.02 0.02 0.01 0.01
0.12 0.11 0.09 0.09 0.09 0.10 0.09 0.11 0.09 0.07 0.07 0.07 0.09 0.09 0.10 0.10 0.08 0.09 0.09 0.09 0.09 0.08 0.07 0.07 0.06 0.04 0.03 0.03 0.04 0.04 0.04 0.05 0.05 0.05 0.04 0.04 0.04 0.04 0.03 0.03 0.01 0.01 0.01
0.09 0.08 0.06 0.05 0.04 0.05 0.05 0.05 0.05 0.06 0.06 0.06 0.06 0.07 0.07 0.07 0.09 0.10 0.09 0.08 0.06 0.06 0.05 0.05 0.05 0.04 0.03 0.03 0.04 0.04 0.05 0.05 0.05 0.05 0.05 0.05 0.05 0.04 0.04 0.03 0.02 0.02 0.01
0.04 0.03 0.03 0.02 0.02 0.02 0.03 0.06 0.10 0.07 0.08 0.08 0.06 0.07 0.07 0.06 0.05 0.05 0.06 0.07 0.06 0.05 0.04 0.04 0.04 0.04 0.04 0.04 0.03 0.03 0.04 0.05 0.04 0.05 0.05 0.04 0.04 0.04 0.05 0.05 0.04 0.04 0.03
0.03 0.04 0.03 0.04 0.03 0.02 0.03 0.07 0.14 0.09 0.07 0.08 0.07 0.07 0.07 0.04 0.03 0.03 0.04 0.06 0.04 0.05 0.04 0.03 0.03 0.03 0.04 0.04 0.04 0.05 0.05 0.06 0.06 0.06 0.05 0.05 0.04 0.04 0.05 0.04 0.04 0.04 0.05
0.04 0.04 0.03 0.03 0.03 0.03 0.04 0.05 0.07 0.07 0.06 0.05 0.05 0.04 0.04 0.03 0.03 0.03 0.04 0.04 0.03 0.03 0.03 0.03 0.03 0.03 0.04 0.04 0.05 0.06 0.06 0.05 0.05 0.05 0.04 0.04 0.04 0.04 0.04 0.03 0.03 0.04 0.04
0.03 0.03 0.04 0.04 0.04 0.04 0.05 0.06 0.08 0.06 0.05 0.04 0.04 0.03 0.03 0.02 0.02 0.02 0.02 0.02 0.03 0.03 0.02 0.02 0.02 0.02 0.03 0.04 0.04 0.04 0.02 0.02 0.02 0.02 0.03 0.04 0.05 0.05 0.04 0.04 0.04 0.04 0.04
0.08 0.05 0.07 0.07 0.06 0.05 0.06 0.06 0.05 0.05 0.05 0.04 0.02 0.02 0.02 0.02 0.02 0.02 0.02 0.01 0.01 0.02 0.02 0.02 0.01 0.02 0.03 0.04 0.04 0.03 0.01 0.01 0.01 0.01 0.02 0.03 0.05 0.06 0.05 0.05 0.05 0.04 0.04
0.10 0.11 0.06 0.05 0.06 0.05 0.04 0.04 0.05 0.05 0.05 0.05 0.04 0.03 0.02 0.02 0.02 0.02 0.02 0.02 0.02 0.02 0.01 0.01 0.01 0.01 0.02 0.04 0.07 0.04 0.01 0.01 0.01 0.01 0.02 0.02 0.04 0.04 0.05 0.06 0.06 0.05 0.04
0.06 0.06 0.05 0.03 0.03 0.03 0.03 0.03 0.03 0.04 0.05 0.06 0.05 0.03 0.02 0.02 0.02 0.01 0.01 0.01 0.02 0.01 0.01 0.01 0.02 0.02 0.02 0.05 0.08 0.04 0.02 0.01 0.01 0.02 0.03 0.03 0.04 0.03 0.05 0.07 0.06 0.06 0.06
0.05 0.04 0.04 0.03 0.03 0.03 0.04 0.04 0.04 0.03 0.03 0.03 0.03 0.02 0.01 0.01 0.01 0.01 0.01 0.02 0.02 0.02 0.02 0.01 0.01 0.02 0.03 0.07 0.07 0.03 0.02 0.02 0.01 0.02 0.02 0.03 0.03 0.04 0.04 0.05 0.05 0.06 0.06
0.03 0.03 0.03 0.03 0.03 0.04 0.05 0.06 0.04 0.02 0.01 0.01 0.02 0.02 0.01 0.01 0.01 0.01 0.02 0.02 0.02 0.02 0.02 0.02 0.02 0.02 0.04 0.06 0.05 0.02 0.02 0.01 0.01 0.02 0.02 0.02 0.03 0.03 0.03 0.04 0.05 0.06 0.06
0.02 0.02 0.02 0.02 0.02 0.03 0.04 0.04 0.03 0.02 0.01 0.01 0.01 0.01 0.01 0.02 0.01 0.02 0.02 0.02 0.02 0.01 0.03 0.03 0.03 0.04 0.06 0.07 0.05 0.02 0.02 0.02 0.02 0.02 0.02 0.03 0.03 0.03 0.04 0.04 0.03 0.03 0.04
0.02 0.01 0.01 0.01 0.01 0.02 0.02 0.01 0.01 0.02 0.02 0.01 0.00 0.01 0.01 0.01 0.01 0.02 0.02 0.02 0.02 0.04 0.06 0.06 0.07 0.08 0.08 0.06 0.04 0.02 0.03 0.02 0.02 0.03 0.03 0.04 0.03 0.03 0.04 0.04 0.03 0.03 0.03
0.01 0.01 0.01 0.01 0.01 0.01 0.01 0.01 0.01 0.02 0.02 0.01 0.01 0.01 0.01 0.02 0.02 0.02 0.02 0.03 0.05 0.07 0.08 0.08 0.09 0.07 0.05 0.04 0.02 0.02 0.02 0.02 0.02 0.02 0.03 0.03 0.02 0.03 0.03 0.03 0.02 0.02 0.02
0.02 0.01 0.01 0.01 0.01 0.01 0.01 0.01 0.02 0.02 0.02 0.02 0.01 0.01 0.01 0.01 0.02 0.01 0.01 0.03 0.05 0.07 0.08 0.07 0.06 0.04 0.03 0.03 0.02 0.02 0.01 0.02 0.02 0.02 0.02 0.02 0.02 0.02 0.03 0.03 0.02 0.02 0.02
0.03 0.02 0.01 0.01 0.01 0.01 0.01 0.02 0.02 0.02 0.02 0.01 0.01 0.01 0.01 0.02 0.02 0.01 0.03 0.05 0.06 0.07 0.05 0.03 0.02 0.02 0.02 0.03 0.02 0.02 0.01 0.01 0.02 0.02 0.02 0.03 0.03 0.02 0.02 0.02 0.02 0.03 0.03
0.06 0.03 0.02 0.01 0.02 0.02 0.02 0.03 0.03 0.02 0.01 0.01 0.01 0.01 0.01 0.01 0.01 0.01 0.02 0.03 0.03 0.02 0.02 0.02 0.02 0.03 0.03 0.03 0.03 0.03 0.02 0.02 0.02 0.02 0.02 0.02 0.02 0.02 0.01 0.02 0.03 0.04 0.04
0.03 0.03 0.02 0.02 0.02 0.02 0.02 0.02 0.02 0.02 0.01 0.01 0.01 0.01 0.01 0.01 0.01 0.01 0.01 0.01 0.01 0.01 0.01 0.01 0.02 0.03 0.02 0.02 0.02 0.02 0.02 0.02 0.02 0.01 0.01 0.01 0.01 0.01 0.01 0.02 0.03 0.04 0.03
0.01 0.02 0.01 0.02 0.02 0.03 0.02 0.01 0.02 0.02 0.01 0.01 0.01 0.02 0.02 0.01 0.00 0.00 0.01 0.01 0.02 0.02 0.02 0.03 0.05 0.05 0.03 0.02 0.02 0.01 0.01 0.01 0.01 0.01 0.01 0.01 0.01 0.02 0.02 0.03 0.04 0.04 0.04
0.01 0.01 0.02 0.02 0.02 0.03 0.02 0.01 0.02 0.01 0.01 0.01 0.01 0.02 0.01 0.01 0.01 0.01 0.02 0.03 0.03 0.04 0.05 0.06 0.07 0.03 0.02 0.02 0.02 0.02 0.02 0.02 0.02 0.01 0.01 0.02 0.02 0.03 0.03 0.03 0.04 0.05 0.05
MSLP
1002.96 1003.19 1003.40 1003.59 1003.76 1003.94 1004.16 1004.47 1004.88 1005.41 1006.03 1006.70 1007.36 1007.98 1008.52 1008.95 1009.27 1009.50 1009.69 1009.86 1010.04 1010.28 1010.57 1010.91 1011.29 1011.69 1012.08 1012.44 1012.76 1013.04 1013.25 1013.41 1013.52 1013.57 1013.56 1013.49 1013.38 1013.22 1013.03 1012.82 1012.62 1012.45 1012.33
1003.10 1003.30 1003.47 1003.60 1003.72 1003.84 1004.03 1004.31 1004.73 1005.28 1005.94 1006.64 1007.35 1008.00 1008.54 1008.96 1009.26 1009.46 1009.62 1009.77 1009.96 1010.20 1010.52 1010.88 1011.29 1011.69 1012.07 1012.41 1012.69 1012.92 1013.09 1013.22 1013.33 1013.40 1013.44 1013.44 1013.40 1013.31 1013.19 1013.03 1012.86 1012.70 1012.57
1003.33 1003.51 1003.64 1003.72 1003.78 1003.86 1004.00 1004.26 1004.68 1005.24 1005.91 1006.64 1007.37 1008.04 1008.59 1009.01 1009.30 1009.51 1009.66 1009.82 1010.02 1010.28 1010.60 1010.98 1011.38 1011.76 1012.10 1012.39 1012.62 1012.79 1012.93 1013.04 1013.15 1013.26 1013.35 1013.43 1013.47 1013.46 1013.40 1013.29 1013.15 1013.00 1012.85
1003.63 1003.77 1003.86 1003.90 1003.92 1003.94 1004.06 1004.29 1004.69 1005.24 1005.92 1006.66 1007.40 1008.08 1008.65 1009.08 1009.39 1009.61 1009.78 1009.96 1010.18 1010.46 1010.79 1011.16 1011.53 1011.88 1012.17 1012.40 1012.56 1012.68 1012.79 1012.90 1013.02 1013.16 1013.32 1013.46 1013.58 1013.63 1013.62 1013.55 1013.42 1013.26 1013.10
1003.97 1004.06 1004.11 1004.10 1004.08 1004.07 1004.15 1004.36 1004.74 1005.27 1005.94 1006.67 1007.42 1008.10 1008.68 1009.13 1009.47 1009.72 1009.94 1010.15 1010.39 1010.68 1011.02 1011.37 1011.72 1012.01 1012.25 1012.42 1012.53 1012.62 1012.69 1012.80 1012.94 1013.12 1013.32 1013.52 1013.69 1013.79 1013.81 1013.75 1013.62 1013.44 1013.24
1004.34 1004.36 1004.36 1004.32 1004.26 1004.23 1004.29 1004.48 1004.83 1005.34 1005.97 1006.68 1007.41 1008.09 1008.68 1009.16 1009.53 1009.82 1010.08 1010.33 1010.60 1010.91 1011.24 1011.58 1011.89 1012.14 1012.32 1012.45 1012.52 1012.57 1012.63 1012.74 1012.89 1013.10 1013.33 1013.56 1013.74 1013.86 1013.89 1013.83 1013.68 1013.48 1013.24
1004.72 1004.67 1004.62 1004.55 1004.48 1004.44 1004.49 1004.66 1004.98 1005.46 1006.05 1006.73 1007.42 1008.08 1008.66 1009.16 1009.56 1009.88 1010.18 1010.47 1010.77 1011.10 1011.42 1011.74 1012.02 1012.23 1012.37 1012.45 1012.50 1012.52 1012.58 1012.68 1012.84 1013.04 1013.28 1013.51 1013.69 1013.80 1013.82 1013.73 1013.56 1013.32 1013.07
1005.09 1004.98 1004.90 1004.82 1004.76 1004.73 1004.78 1004.94 1005.24 1005.67 1006.22 1006.84 1007.48 1008.11 1008.67 1009.16 1009.57 1009.93 1010.26 1010.57 1010.90 1011.22 1011.54 1011.84 1012.08 1012.26 1012.38 1012.42 1012.44 1012.45 1012.49 1012.58 1012.72 1012.91 1013.12 1013.32 1013.48 1013.56 1013.54 1013.43 1013.23 1012.98 1012.70
1005.46 1005.32 1005.22 1005.16 1005.12 1005.12 1005.18 1005.34 1005.62 1006.02 1006.51 1007.07 1007.65 1008.22 1008.74 1009.21 1009.62 1009.98 1010.32 1010.65 1010.98 1011.30 1011.60 1011.87 1012.08 1012.23 1012.31 1012.34 1012.33 1012.32 1012.33 1012.39 1012.50 1012.64 1012.81 1012.96 1013.06 1013.10 1013.05 1012.91 1012.70 1012.45 1012.16
1005.80 1005.66 1005.59 1005.56 1005.58 1005.62 1005.72 1005.90 1006.16 1006.52 1006.95 1007.43 1007.94 1008.45 1008.92 1009.35 1009.73 1010.08 1010.41 1010.73 1011.04 1011.34 1011.61 1011.85 1012.02 1012.14 1012.18 1012.18 1012.14 1012.09 1012.07 1012.08 1012.13 1012.21 1012.31 1012.40 1012.45 1012.44 1012.35 1012.20 1012.00 1011.75 1011.48
1006.11 1006.00 1006.00 1006.04 1006.12 1006.23 1006.38 1006.57 1006.83 1007.15 1007.52 1007.94 1008.38 1008.80 1009.21 1009.58 1009.92 1010.24 1010.54 1010.82 1011.10 1011.36 1011.59 1011.78 1011.91 1011.98 1011.98 1011.94 1011.86 1011.77 1011.69 1011.64 1011.62 1011.62 1011.64 1011.66 1011.64 1011.59 1011.49 1011.34 1011.14 1010.92 1010.68
1006.38 1006.36 1006.44 1006.57 1006.73 1006.91 1007.10 1007.32 1007.58 1007.86 1008.19 1008.54 1008.90 1009.26 1009.60 1009.90 1010.19 1010.45 1010.70 1010.93 1011.16 1011.36 1011.54 1011.67 1011.75 1011.76 1011.72 1011.63 1011.50 1011.35 1011.21 1011.09 1010.98 1010.91 1010.85 1010.79 1010.72 1010.63 1010.51 1010.36 1010.19 1010.00 1009.79
1006.62 1006.71 1006.88 1007.11 1007.35 1007.60 1007.84 1008.08 1008.33 1008.60 1008.88 1009.18 1009.47 1009.76 1010.02 1010.27 1010.49 1010.69 1010.87 1011.04 1011.20 1011.33 1011.44 1011.51 1011.53 1011.49 1011.40 1011.26 1011.08 1010.88 1010.67 1010.46 1010.29 1010.13 1009.99 1009.86 1009.74 1009.62 1009.49 1009.35 1009.20 1009.03 1008.86
1006.87 1007.06 1007.34 1007.64 1007.95 1008.25 1008.52 1008.78 1009.03 1009.27 1009.52 1009.76 1010.00 1010.23 1010.43 1010.61 1010.76 1010.90 1011.01 1011.11 1011.19 1011.25 1011.30 1011.30 1011.26 1011.17 1011.03 1010.84 1010.61 1010.36 1010.09 1009.83 1009.58 1009.35 1009.15 1008.96 1008.80 1008.65 1008.50 1008.36 1008.22 1008.06 1007.90
1007.15 1007.43 1007.78 1008.14 1008.50 1008.82 1009.11 1009.37 1009.61 1009.84 1010.05 1010.26 1010.45 1010.62 1010.77 1010.88 1010.98 1011.04 1011.08 1011.10 1011.11 1011.10 1011.08 1011.02 1010.93 1010.80 1010.62 1010.40 1010.14 1009.85 1009.54 1009.24 1008.93 1008.65 1008.39 1008.16 1007.96 1007.77 1007.60 1007.45 1007.30 1007.14 1006.97
1007.50 1007.83 1008.22 1008.60 1008.97 1009.30 1009.59 1009.84 1010.06 1010.27 1010.46 1010.63 1010.78 1010.90 1011.00 1011.06 1011.08 1011.08 1011.05 1011.01 1010.95 1010.88 1010.80 1010.70 1010.57 1010.40 1010.21 1009.97 1009.70 1009.39 1009.07 1008.73 1008.40 1008.09 1007.79 1007.52 1007.28 1007.06 1006.86 1006.67 1006.49 1006.30 1006.10
1007.92 1008.28 1008.66 1009.04 1009.38 1009.70 1009.96 1010.19 1010.39 1010.58 1010.74 1010.88 1010.99 1011.07 1011.12 1011.12 1011.09 1011.03 1010.94 1010.84 1010.72 1010.60 1010.48 1010.35 1010.20 1010.03 1009.83 1009.60 1009.33 1009.04 1008.71 1008.38 1008.04 1007.70 1007.38 1007.08 1006.80 1006.54 1006.30 1006.06 1005.83 1005.59 1005.35
1008.45 1008.78 1009.12 1009.46 1009.76 1010.04 1010.27 1010.47 1010.64 1010.80 1010.93 1011.04 1011.12 1011.16 1011.16 1011.11 1011.03 1010.92 1010.78 1010.63 1010.48 1010.33 1010.18 1010.04 1009.89 1009.73 1009.54 1009.34 1009.09 1008.82 1008.52 1008.20 1007.86 1007.53 1007.20 1006.88 1006.56 1006.26 1005.96 1005.66 1005.36 1005.06 1004.76
1009.04 1009.32 1009.60 1009.88 1010.14 1010.36 1010.56 1010.72 1010.86 1010.99 1011.09 1011.16 1011.20 1011.21 1011.17 1011.08 1010.96 1010.80 1010.63 1010.46 1010.28 1010.12 1009.98 1009.84 1009.71 1009.57 1009.41 1009.23 1009.02 1008.78 1008.51 1008.21 1007.90 1007.56 1007.23 1006.89 1006.55 1006.20 1005.84 1005.48 1005.12 1004.74 1004.37
1009.67 1009.88 1010.10 1010.32 1010.52 1010.70 1010.85 1010.98 1011.10 1011.19 1011.26 1011.30 1011.30 1011.26 1011.19 1011.07 1010.92 1010.74 1010.56 1010.38 1010.21 1010.06 1009.93 1009.81 1009.71 1009.60 1009.47 1009.32 1009.15 1008.94 1008.69 1008.42 1008.12 1007.80 1007.46 1007.11 1006.74 1006.35 1005.94 1005.52 1005.08 1004.64 1004.20
1010.28 1010.43 1010.59 1010.76 1010.91 1011.05 1011.17 1011.27 1011.36 1011.42 1011.45 1011.46 1011.42 1011.36 1011.25 1011.12 1010.96 1010.78 1010.61 1010.44 1010.30 1010.18 1010.08 1010.00 1009.93 1009.85 1009.75 1009.63 1009.47 1009.28 1009.06 1008.80 1008.51 1008.20 1007.86 1007.49 1007.10 1006.67 1006.22 1005.75 1005.26 1004.75 1004.25
1010.84 1010.94 1011.06 1011.19 1011.31 1011.42 1011.51 1011.58 1011.63 1011.66 1011.66 1011.63 1011.57 1011.48 1011.36 1011.22 1011.08 1010.92 1010.79 1010.67 1010.57 1010.50 1010.45 1010.41 1010.37 1010.31 1010.23 1010.12 1009.98 1009.79 1009.57 1009.32 1009.03 1008.71 1008.37 1007.99 1007.58 1007.13 1006.65 1006.14 1005.60 1005.04 1004.49
1011.32 1011.39 1011.49 1011.60 1011.69 1011.77 1011.84 1011.88 1011.89 1011.88 1011.85 1011.80 1011.71 1011.61 1011.50 1011.38 1011.27 1011.17 1011.09 1011.03 1011.00 1010.99 1010.99 1011.00 1010.98 1010.95 1010.88 1010.76 1010.61 1010.42 1010.18 1009.92 1009.62 1009.30 1008.95 1008.56 1008.14 1007.68 1007.18 1006.63 1006.06 1005.48 1004.89
1011.70 1011.77 1011.86 1011.95 1012.02 1012.08 1012.12 1012.12 1012.10 1012.06 1012.00 1011.92 1011.83 1011.73 1011.64 1011.56 1011.50 1011.47 1011.47 1011.49 1011.54 1011.60 1011.66 1011.70 1011.71 1011.68 1011.61 1011.48 1011.31 1011.10 1010.84 1010.55 1010.24 1009.91 1009.55 1009.16 1008.73 1008.26 1007.75 1007.19 1006.60 1005.99 1005.38
1012.00 1012.07 1012.16 1012.23 1012.28 1012.31 1012.31 1012.28 1012.23 1012.16 1012.06 1011.97 1011.89 1011.81 1011.76 1011.74 1011.75 1011.80 1011.88 1011.99 1012.12 1012.24 1012.36 1012.43 1012.46 1012.44 1012.35 1012.20 1012.01 1011.76 1011.48 1011.18 1010.85 1010.50 1010.14 1009.74 1009.31 1008.84 1008.33 1007.76 1007.17 1006.55 1005.91
1012.22 1012.31 1012.38 1012.44 1012.46 1012.46 1012.42 1012.34 1012.26 1012.16 1012.05 1011.96 1011.90 1011.86 1011.86 1011.90 1012.00 1012.13 1012.30 1012.49 1012.68 1012.86 1013.02 1013.12 1013.15 1013.13 1013.03 1012.86 1012.64 1012.38 1012.08 1011.76 1011.42 1011.06 1010.70 1010.30 1009.87 1009.40 1008.89 1008.33 1007.73 1007.10 1006.45
Thickness
5724 5726 5726 5725 5723 5721 5719 5717 5715 5713 5710 5706 5702 5700 5698 5697 5695 5695 5694 5691 5688 5686 5683 5680 5677 5675 5673 5671 5669 5667 5665 5664 5663 5661 5661 5662 5662 5662 5662 5662 5662 5662 5661
5716 5719 5719 5719 5717 5715 5713 5712 5710 5708 5705 5702 5699 5696 5694 5691 5690 5689 5687 5685 5682 5680 5678 5675 5672 5670 5668 5665 5663 5660 5658 5657 5656 5653 5651 5650 5652 5654 5656 5655 5655 5655 5655
5711 5713 5713 5713 5712 5710 5709 5708 5705 5703 5701 5698 5694 5691 5688 5686 5684 5682 5680 5678 5676 5674 5672 5669 5667 5664 5662 5659 5657 5654 5652 5650 5649 5647 5644 5641 5641 5644 5646 5647 5648 5648 5647
5708 5708 5709 5708 5707 5706 5704 5702 5700 5698 5695 5693 5689 5685 5682 5679 5678 5676 5674 5672 5669 5667 5666 5663 5661 5658 5656 5654 5652 5651 5647 5645 5643 5640 5638 5637 5636 5634 5636 5639 5640 5640 5640
5704 5704 5705 5704 5703 5702 5700 5698 5696 5694 5691 5688 5685 5680 5677 5674 5672 5670 5667 5665 5663 5661 5659 5657 5655 5653 5651 5649 5647 5645 5642 5640 5638 5636 5633 5630 5628 5626 5626 5629 5631 5632 5633
5700 5701 5701 5700 5698 5697 5695 5694 5691 5688 5686 5684 5680 5676 5672 5669 5666 5664 5661 5659 5657 5656 5654 5652 5650 5648 5646 5644 5642 5640 5638 5636 5634 5631 5628 5626 5624 5623 5620 5620 5622 5624 5627
5695 5695 5696 5695 5693 5691 5690 5689 5686 5683 5681 5678 5675 5672 5668 5664 5661 5659 5656 5654 5652 5651 5649 5648 5645 5643 5641 5639 5636 5634 5633 5631 5629 5627 5625 5623 5620 5618 5616 5614 5615 5616 5618
5690 5692 5691 5691 5690 5688 5687 5684 5682 5679 5676 5673 5671 5668 5664 5660 5658 5655 5652 5649 5648 5646 5644 5642 5640 5638 5636 5634 5631 5630 5628 5627 5625 5623 5621 5619 5617 5614 5611 5609 5608 5609 5611
5687 5687 5688 5687 5686 5684 5683 5681 5678 5674 5671 5669 5667 5664 5660 5656 5654 5651 5648 5645 5642 5640 5639 5637 5635 5633 5631 5629 5627 5625 5623 5622 5620 5617 5615 5613 5612 5609 5607 5605 5603 5602 5603
5682 5684 5684 5683 5682 5681 5679 5677 5673 5670 5667 5664 5662 5660 5656 5652 5649 5646 5644 5641 5638 5635 5633 5631 5630 5628 5626 5624 5622 5620 5618 5616 5614 5611 5609 5607 5606 5604 5602 5600 5598 5596 5596
5678 5679 5679 5679 5678 5677 5674 5671 5668 5665 5662 5660 5657 5653 5650 5647 5644 5641 5639 5637 5634 5632 5629 5627 5625 5623 5621 5619 5617 5614 5613 5610 5608 5605 5603 5602 5600 5598 5597 5595 5593 5591 5589
5673 5674 5674 5673 5672 5671 5669 5666 5663 5660 5657 5655 5652 5649 5645 5643 5640 5637 5635 5633 5630 5627 5625 5623 5621 5619 5617 5615 5612 5609 5608 5605 5602 5600 5597 5596 5595 5593 5591 5589 5587 5585 5583
5668 5669 5668 5668 5667 5666 5664 5662 5660 5657 5655 5652 5649 5645 5641 5639 5636 5633 5631 5629 5626 5624 5622 5619 5617 5615 5613 5611 5608 5605 5603 5600 5597 5594 5592 5590 5589 5587 5585 5583 5581 5580 5579
5664 5664 5663 5663 5662 5662 5660 5659 5657 5655 5652 5648 5644 5640 5637 5635 5632 5630 5628 5625 5623 5620 5618 5616 5614 5612 5610 5607 5605 5602 5599 5596 5592 5589 5587 5586 5584 5581 5579 5578 5576 5574 5572
5661 5661 5660 5658 5658 5657 5656 5655 5653 5650 5647 5644 5640 5637 5635 5632 5630 5627 5624 5622 5619 5617 5615 5613 5611 5609 5607 5605 5601 5598 5595 5591 5588 5586 5584 5582 5579 5577 5574 5572 5570 5568 5566
5658 5658 5657 5656 5655 5654 5653 5651 5649 5646 5644 5641 5638 5636 5633 5630 5627 5624 5621 5618 5616 5614 5612 5610 5608 5606 5604 5601 5598 5595 5591 5588 5584 5582 5579 5577 5574 5571 5568 5566 5564 5562 5560
5654 5655 5655 5654 5653 5651 5649 5647 5646 5644 5641 5639 5636 5633 5631 5628 5625 5622 5619 5616 5613 5611 5609 5607 5605 5603 5601 5598 5594 5591 5587 5584 5580 5577 5574 5572 5569 5565 5562 5560 5558 5556 5554
5652 5653 5652 5652 5651 5650 5648 5646 5644 5642 5639 5636 5634 5632 5629 5626 5623 5620 5617 5614 5611 5609 5606 5604 5602 5599 5597 5594 5590 5587 5583 5579 5575 5571 5568 5564 5562 5559 5555 5553 5551 5549 5547
5650 5650 5650 5650 5649 5647 5646 5644 5642 5640 5637 5635 5633 5631 5628 5625 5622 5618 5616 5612 5609 5607 5604 5602 5599 5596 5594 5590 5586 5582 5578 5573 5569 5566 5562 5558 5554 5550 5547 5545 5543 5541 5540
5649 5649 5649 5648 5646 5645 5644 5642 5640 5638 5636 5634 5632 5630 5627 5624 5620 5617 5613 5610 5607 5605 5602 5599 5596 5592 5589 5585 5581 5577 5573 5568 5564 5560 5556 5551 5547 5543 5539 5537 5534 5532 5531
5647 5648 5646 5645 5644 5643 5641 5639 5638 5637 5636 5634 5631 5629 5626 5622 5619 5615 5612 5608 5605 5602 5599 5597 5593 5589 5584 5580 5576 5571 5566 5561 5557 5553 5549 5545 5540 5536 5532 5529 5525 5522 5521
5644 5644 5643 5642 5641 5641 5639 5637 5636 5636 5635 5632 5629 5627 5624 5621 5617 5613 5609 5606 5603 5599 5596 5593 5589 5585 5580 5576 5571 5566 5561 5556 5551 5546 5542 5537 5532 5529 5525 5522 5519 5516 5515
5640 5641 5640 5639 5639 5638 5637 5635 5635 5634 5632 5630 5627 5624 5621 5618 5614 5610 5607 5603 5599 5596 5592 5588 5584 5580 5576 5572 5567 5562 5557 5552 5546 5540 5535 5531 5527 5523 5520 5516 5513 5511 5509
5637 5638 5637 5637 5636 5636 5636 5635 5634 5632 5629 5626 5623 5621 5618 5615 5612 5608 5604 5600 5597 5593 5589 5585 5580 5576 5572 5567 5563 5558 5553 5547 5541 5536 5530 5526 5522 5518 5514 5511 5508 5505 5502
5635 5635 5635 5635 5635 5635 5634 5634 5632 5630 5626 5623 5621 5618 5615 5611 5608 5604 5600 5597 5594 5589 5585 5581 5576 5572 5567 5562 5557 5552 5548 5542 5536 5531 5526 5522 5517 5514 5510 5506 5503 5500 5497
5633 5633 5634 5634 5634 5634 5633 5632 5630 5628 5624 5621 5618 5615 5612 5609 5605 5601 5597 5594 5590 5587 5583 5578 5572 5567 5562 5558 5553 5548 5542 5537 5531 5527 5521 5516 5511 5507 5504 5500 5498 5495 5491